Wind_Speed
31 31 32 34 36 37 37 36 35 35 34 33 33 35 39 45 49 49 50 50 49 49 49 48 49 50 53 55 58 60 61 62 62 63 64 63 63 63 62 62 61 61 61
29 30 31 33 34 35 35 34 33 32 31 30 29 31 36 40 46 49 50 51 50 49 49 48 49 50 51 53 54 56 58 60 60 61 62 63 63 63 62 62 61 61 60
30 31 33 34 34 34 34 33 32 31 29 27 26 27 31 36 41 45 48 51 51 51 50 50 51 52 53 53 54 55 57 58 58 59 60 61 62 61 61 61 61 61 60
32 34 34 35 35 34 33 32 31 30 28 25 24 25 27 31 36 40 44 47 50 52 51 50 49 49 51 52 53 53 54 54 54 55 56 57 58 59 59 60 60 61 61
34 36 36 36 36 35 34 32 31 29 27 25 24 24 25 28 31 34 39 42 45 46 47 47 48 48 48 49 50 50 50 50 50 51 53 54 56 57 58 58 59 59 61
37 38 38 38 37 36 34 32 31 30 28 26 24 24 24 26 28 31 34 37 39 41 42 44 46 46 46 46 47 48 47 48 49 50 52 54 55 56 57 58 58 58 59
40 40 40 39 39 37 35 33 31 30 29 27 25 25 24 25 27 29 31 34 37 39 41 42 43 45 46 46 46 46 47 47 48 49 51 53 54 55 56 57 57 58 57
44 43 43 42 40 38 36 34 32 31 30 29 27 26 26 26 26 28 30 34 37 39 40 40 41 43 45 46 45 45 46 46 47 48 50 51 52 53 55 55 56 57 56
47 46 45 43 42 40 38 35 33 32 31 30 30 29 28 28 29 29 30 33 36 39 40 40 41 42 44 44 45 45 45 46 46 47 48 49 50 51 52 54 54 54 53
50 49 48 46 44 42 39 36 34 33 32 32 32 32 32 31 32 32 32 33 35 37 40 41 42 43 43 44 44 44 44 45 46 47 47 48 48 48 49 50 50 50 50
53 52 50 48 46 44 42 39 36 35 34 33 33 33 34 35 35 35 35 35 36 37 39 41 42 43 44 43 43 43 44 44 45 46 46 46 45 45 46 46 47 47 47
52 51 50 48 47 45 44 42 40 38 37 36 35 35 35 37 38 39 39 39 38 39 39 41 42 43 44 44 43 43 43 43 43 44 44 44 43 43 44 44 44 44 45
49 48 47 46 45 44 43 42 42 42 41 39 38 38 38 38 40 41 42 43 43 42 42 42 43 44 45 45 44 43 43 43 43 43 43 44 43 43 43 44 43 44 44
47 46 46 45 44 43 42 41 41 42 43 42 42 42 42 42 42 43 44 45 46 46 46 46 45 45 45 45 45 45 44 43 43 43 43 43 43 43 43 43 44 44 44
47 46 45 44 43 41 40 39 38 39 40 42 43 44 45 46 47 47 46 47 49 50 50 50 50 50 49 48 48 47 46 45 44 43 43 43 43 43 43 44 44 44 44
47 47 46 44 42 40 38 37 36 35 34 36 38 41 44 47 49 51 51 51 51 52 53 53 54 54 54 53 52 51 50 48 47 45 44 43 43 43 43 43 43 43 43
49 49 48 46 44 41 39 36 34 33 32 31 32 34 37 41 45 50 53 54 55 55 55 56 56 57 57 57 57 56 55 53 52 50 49 47 46 45 45 44 43 43 42
51 51 50 48 46 43 40 37 34 32 30 30 29 29 30 32 35 40 46 51 55 58 59 59 60 60 60 60 61 61 60 59 58 56 55 53 52 50 49 48 47 46 45
53 52 51 49 47 45 42 39 36 34 32 30 29 28 28 29 29 31 34 40 46 53 58 61 63 64 64 64 64 64 64 64 63 62 61 60 58 57 55 54 52 51 50
54 53 53 51 49 46 44 41 38 36 34 32 31 30 29 29 28 28 29 31 34 40 46 53 59 64 66 68 68 68 67 67 67 67 66 65 64 63 62 60 59 58 56
55 53 52 51 50 48 45 42 40 37 35 34 33 32 30 29 29 29 28 28 29 31 35 40 47 54 61 66 69 71 71 71 71 70 70 70 69 68 67 65 64 63 62
56 55 55 55 53 51 47 44 41 38 36 34 32 31 30 29 28 28 28 27 28 28 29 31 35 41 47 54 62 67 71 73 74 73 73 72 72 71 70 69 68 67 65
59 59 59 58 55 53 49 45 42 38 35 32 29 27 26 25 25 25 25 26 26 27 28 28 30 32 36 41 47 54 61 67 71 74 75 75 74 74 73 72 71 69 68
61 60 60 59 58 55 52 48 43 39 34 28 24 21 19 19 20 21 22 23 24 25 26 26 26 27 28 30 34 39 46 53 60 66 71 73 74 75 74 73 72 70 69
60 60 60 60 60 59 57 52 47 42 35 28 22 16 14 14 14 16 17 19 21 22 23 22 21 20 20 21 23 26 30 36 43 50 57 64 68 71 72 72 72 70 69
58 58 59 60 61 62 61 59 55 48 41 33 26 19 15 13 13 13 13 15 16 16 16 15 13 11 10 10 11 13 16 21 26 32 39 46 53 59 64 66 68 68 67
Wind_Direction
302 302 304 306 307 307 307 306 305 303 300 290 277 259 248 241 235 234 234 237 240 242 242 240 239 240 240 241 242 242 244 245 246 246 246 246 246 247 248 249 249 249 249
307 308 309 310 310 308 306 304 303 304 301 294 281 263 252 243 238 236 234 234 235 236 238 239 239 240 241 242 243 244 245 246 246 247 248 248 248 248 248 247 248 248 248
313 313 313 313 311 308 305 302 300 301 300 296 285 272 257 247 242 240 237 236 235 234 236 239 240 241 242 242 243 244 244 244 245 245 247 248 248 248 247 247 247 247 247
316 316 315 314 313 309 304 300 297 297 297 294 286 275 264 252 246 242 240 239 237 237 238 239 239 240 240 240 240 241 241 241 242 243 244 246 247 248 248 248 248 247 246
319 318 316 315 313 310 305 300 295 293 293 291 285 277 267 257 249 242 240 239 238 239 239 240 238 239 238 237 236 236 237 239 241 243 245 246 247 248 249 249 248 247 245
319 318 316 315 313 310 306 300 294 290 288 287 283 277 270 261 252 244 239 237 236 236 238 239 238 238 237 236 235 236 239 242 243 245 246 247 248 248 247 247 247 246 246
318 317 315 314 312 310 306 300 294 288 283 281 278 274 270 264 254 246 241 238 235 234 235 236 235 235 235 235 236 238 241 243 245 246 247 247 247 247 246 246 245 246 246
316 315 313 312 310 309 306 301 295 288 281 275 273 269 267 263 257 250 245 240 236 235 235 235 234 234 234 235 238 240 242 244 245 246 246 246 246 245 244 244 245 245 245
314 312 311 309 307 305 304 300 295 289 282 274 269 265 262 260 257 253 249 243 239 236 236 235 236 236 236 238 240 241 242 242 243 244 245 245 244 244 243 243 243 242 241
312 310 308 306 304 301 298 296 292 287 282 275 268 263 259 256 254 253 250 246 242 239 237 236 237 237 238 239 241 242 243 243 244 244 243 243 243 243 243 242 239 237 234
311 309 306 304 301 298 295 291 288 284 280 275 269 263 258 255 252 251 249 247 244 241 239 238 238 239 239 240 241 243 244 244 244 242 241 240 240 240 240 238 234 232 231
314 312 309 306 302 297 293 288 284 280 276 273 268 264 259 255 252 249 248 246 244 243 241 240 240 240 240 241 241 242 243 243 243 241 239 238 238 237 237 235 233 232 231
321 319 316 312 308 303 297 290 285 279 274 270 267 263 260 256 253 250 247 246 244 243 242 241 240 240 240 240 240 240 241 242 241 239 237 236 236 235 234 233 233 233 233
330 328 325 322 317 312 305 297 290 282 276 271 266 262 259 257 253 251 248 247 245 243 242 241 240 239 239 239 238 239 239 239 239 237 235 234 233 232 232 231 231 232 233
339 337 335 332 328 324 318 310 301 292 284 276 269 263 259 257 255 252 249 248 246 245 243 242 241 240 239 238 238 238 238 237 237 236 234 233 232 232 232 232 232 233 234
344 343 341 339 336 333 329 324 317 309 299 289 279 271 263 259 256 254 251 249 247 246 245 244 242 241 240 238 238 238 238 237 236 236 235 233 232 231 231 231 231 232 233
346 344 343 341 339 336 333 329 324 318 312 305 295 285 276 267 260 256 253 251 250 247 246 245 244 243 241 240 239 238 238 238 237 236 236 235 234 233 232 231 231 232 233
347 346 344 343 340 338 334 331 326 321 317 312 306 299 291 282 272 264 258 254 251 249 248 246 245 244 243 242 241 240 239 238 238 237 237 236 236 235 234 234 233 234 235
349 348 347 345 342 339 335 331 327 322 317 313 308 304 299 293 286 278 269 261 256 252 250 248 247 245 244 243 242 241 240 240 239 239 238 238 237 237 237 237 236 237 237
351 350 349 347 344 341 336 332 326 321 316 311 306 302 298 295 292 288 282 275 267 260 255 251 249 247 245 244 243 242 242 241 241 240 239 239 239 238 238 239 239 239 240
354 353 351 349 347 343 339 334 328 322 316 310 304 299 294 291 289 288 287 284 280 274 266 259 254 250 247 246 244 243 243 242 242 241 241 241 240 240 240 240 241 241 242
357 357 356 355 352 348 343 338 332 326 319 312 304 297 292 289 287 286 285 286 285 283 279 273 266 259 253 249 246 245 244 243 242 242 242 241 241 241 241 241 242 242 243
3 3 2 360 357 354 350 345 340 334 327 318 309 300 294 289 287 286 287 288 289 288 287 284 277 270 263 256 251 247 245 244 243 243 242 242 242 242 242 242 242 243 244
8 8 7 7 5 3 0 356 352 347 341 334 324 312 302 295 291 289 290 291 293 293 293 291 286 280 272 264 257 251 248 245 243 243 243 242 242 242 242 243 243 243 244
12 12 12 13 13 13 12 9 7 3 360 356 349 341 329 318 309 303 299 299 300 300 299 298 295 289 280 271 263 256 250 247 244 243 242 242 242 242 242 242 243 243 244
14 15 16 17 19 20 21 21 20 19 18 16 14 10 2 350 338 328 321 317 316 316 317 318 316 310 299 285 271 260 253 249 246 243 242 241 241 241 241 241 242 242 243
Height
5521 5517 5513 5508 5503 5497 5491 5485 5479 5474 5468 5463 5460 5460 5463 5468 5473 5479 5484 5490 5495 5500 5505 5511 5516 5521 5526 5532 5538 5543 5549 5555 5562 5566 5571 5577 5582 5588 5593 5598 5602 5608 5613
5513 5508 5504 5499 5493 5487 5482 5476 5471 5465 5460 5455 5452 5451 5452 5455 5459 5464 5469 5474 5480 5486 5491 5497 5502 5507 5513 5518 5523 5528 5534 5540 5546 5551 5555 5560 5566 5571 5577 5582 5587 5592 5597
5505 5500 5495 5490 5484 5479 5473 5468 5462 5457 5452 5447 5444 5442 5442 5444 5447 5451 5456 5460 5466 5471 5477 5482 5488 5493 5499 5503 5508 5514 5519 5525 5531 5536 5540 5544 5549 5555 5561 5566 5572 5577 5581
5497 5492 5486 5481 5475 5469 5464 5459 5454 5449 5445 5441 5437 5435 5434 5435 5437 5440 5444 5448 5453 5459 5464 5469 5474 5479 5484 5489 5495 5500 5505 5511 5516 5521 5525 5529 5534 5539 5544 5550 5555 5560 5565
5489 5484 5478 5472 5466 5460 5454 5450 5445 5441 5437 5433 5430 5428 5427 5426 5428 5430 5434 5438 5442 5447 5452 5456 5461 5466 5471 5476 5481 5487 5492 5497 5502 5507 5511 5515 5519 5524 5529 5534 5539 5543 5548
5482 5476 5469 5463 5457 5450 5445 5440 5436 5432 5428 5425 5423 5421 5419 5419 5419 5422 5424 5428 5431 5436 5440 5445 5449 5454 5459 5464 5469 5475 5480 5484 5489 5493 5497 5501 5505 5509 5514 5518 5523 5527 5533
5473 5466 5460 5453 5447 5441 5435 5430 5426 5422 5419 5417 5415 5413 5412 5411 5411 5413 5415 5418 5421 5425 5429 5433 5437 5442 5447 5452 5457 5462 5467 5471 5476 5480 5483 5487 5491 5495 5500 5504 5507 5511 5517
5462 5455 5449 5442 5436 5430 5424 5419 5415 5412 5409 5407 5406 5404 5403 5403 5403 5404 5406 5408 5411 5414 5418 5421 5425 5430 5435 5439 5444 5449 5454 5458 5462 5466 5469 5473 5476 5480 5484 5489 5493 5497 5502
5451 5444 5437 5430 5424 5419 5413 5408 5404 5400 5398 5396 5395 5394 5394 5394 5393 5394 5396 5398 5400 5403 5406 5410 5414 5418 5423 5428 5432 5437 5441 5445 5448 5452 5455 5458 5462 5466 5470 5474 5479 5483 5488
5438 5430 5423 5417 5411 5406 5401 5396 5392 5389 5386 5384 5383 5383 5383 5383 5383 5384 5385 5387 5389 5392 5395 5399 5402 5406 5410 5415 5419 5423 5427 5431 5434 5438 5442 5445 5449 5452 5456 5460 5465 5470 5475
5424 5416 5408 5402 5396 5391 5386 5382 5378 5375 5373 5371 5370 5370 5370 5371 5371 5372 5373 5376 5378 5380 5383 5387 5390 5394 5398 5402 5406 5410 5414 5417 5421 5424 5428 5432 5436 5439 5443 5448 5453 5458 5464
5409 5401 5393 5385 5379 5374 5370 5366 5363 5360 5358 5357 5356 5356 5356 5357 5358 5359 5360 5363 5365 5368 5371 5374 5378 5381 5385 5389 5393 5397 5401 5404 5408 5411 5415 5419 5423 5428 5432 5437 5442 5448 5454
5396 5387 5379 5371 5363 5357 5353 5348 5345 5342 5341 5340 5340 5340 5341 5342 5343 5344 5346 5348 5351 5355 5358 5361 5364 5368 5372 5376 5380 5384 5388 5392 5395 5399 5403 5407 5412 5416 5421 5427 5432 5437 5443
5385 5376 5367 5358 5350 5343 5336 5332 5328 5324 5322 5322 5322 5323 5324 5325 5326 5328 5330 5333 5336 5339 5343 5346 5350 5354 5358 5362 5366 5371 5375 5379 5383 5387 5391 5395 5400 5405 5410 5416 5421 5427 5433
5377 5367 5358 5348 5339 5331 5323 5317 5312 5308 5305 5303 5304 5304 5305 5306 5307 5310 5313 5316 5319 5322 5326 5330 5334 5339 5343 5347 5352 5357 5362 5366 5370 5375 5379 5384 5388 5394 5399 5405 5410 5416 5422
5372 5362 5352 5342 5332 5323 5315 5307 5299 5295 5290 5287 5285 5285 5286 5287 5288 5291 5293 5297 5300 5304 5308 5312 5316 5321 5326 5331 5336 5341 5347 5352 5357 5362 5367 5372 5377 5382 5387 5393 5399 5404 5410
5367 5356 5345 5335 5325 5316 5308 5300 5292 5285 5279 5275 5271 5269 5268 5268 5269 5271 5274 5277 5280 5284 5288 5292 5297 5302 5307 5313 5318 5324 5330 5336 5342 5347 5353 5358 5364 5369 5375 5381 5387 5393 5398
5362 5350 5338 5328 5317 5308 5299 5291 5284 5278 5272 5266 5261 5257 5254 5252 5252 5252 5254 5257 5259 5263 5267 5272 5277 5282 5287 5293 5299 5305 5312 5318 5324 5331 5337 5343 5350 5356 5362 5368 5374 5380 5386
5357 5345 5333 5321 5310 5300 5291 5283 5275 5268 5262 5257 5252 5248 5244 5241 5239 5237 5237 5238 5239 5242 5246 5250 5255 5260 5266 5272 5278 5285 5291 5298 5305 5312 5319 5326 5333 5340 5347 5353 5360 5367 5373
5353 5339 5327 5315 5304 5293 5282 5273 5265 5258 5252 5246 5241 5237 5234 5231 5228 5225 5224 5223 5223 5224 5226 5229 5233 5238 5243 5250 5256 5263 5270 5277 5285 5292 5300 5307 5315 5322 5329 5337 5344 5351 5358
5350 5337 5324 5310 5297 5285 5274 5263 5254 5247 5240 5234 5229 5225 5222 5220 5217 5215 5213 5212 5211 5210 5210 5211 5213 5216 5221 5226 5233 5240 5248 5255 5263 5271 5279 5287 5295 5302 5310 5318 5326 5334 5341
5348 5333 5318 5304 5290 5277 5265 5254 5244 5235 5227 5221 5216 5212 5209 5208 5206 5205 5203 5202 5200 5199 5198 5197 5197 5198 5201 5205 5210 5217 5224 5232 5240 5248 5257 5265 5274 5282 5290 5299 5307 5315 5323
5344 5329 5314 5300 5286 5272 5259 5246 5235 5224 5216 5208 5203 5200 5198 5196 5196 5195 5194 5193 5191 5190 5188 5186 5185 5184 5185 5187 5190 5195 5201 5208 5216 5225 5234 5243 5251 5260 5269 5278 5287 5296 5304
5343 5330 5316 5301 5286 5270 5255 5241 5228 5217 5207 5199 5193 5190 5189 5188 5187 5187 5186 5185 5183 5181 5179 5177 5175 5173 5173 5174 5175 5178 5182 5188 5194 5202 5210 5219 5228 5238 5248 5257 5267 5276 5285
5347 5334 5320 5305 5289 5273 5257 5241 5227 5214 5203 5195 5189 5185 5183 5182 5181 5180 5179 5178 5177 5174 5172 5169 5167 5165 5164 5164 5165 5166 5169 5172 5177 5182 5189 5197 5206 5216 5226 5236 5246 5256 5265
5353 5339 5326 5311 5296 5280 5263 5247 5231 5217 5206 5196 5189 5185 5182 5180 5178 5177 5175 5174 5172 5169 5167 5164 5161 5160 5159 5158 5158 5159 5161 5163 5166 5169 5174 5180 5188 5196 5205 5215 5225 5235 5245